| time (UTC) | temp C | wind direction | speed KPH | gust KPH | rain 1hr cm | rain 24hr cm | rain mn cm | humidity % | barometer mb |
| 20260506103554 | 23 | 190 | 0.0 | 3.2 | 0.00 | 0.00 | 0.00 | 63 | 1010.4 |
| 20260506103106 | 23 | 0 | 0.0 | 0.0 | 0.00 | 0.00 | 0.00 | 62 | 1009.9 |
| 20260506103100 | 23 | 190 | 0.0 | 0.0 | 0.00 | 0.00 | 0.00 | 62 | 1010.4 |
| 20260506102553 | 23 | 190 | 0.0 | 0.0 | 0.00 | 0.00 | 0.00 | 62 | 1010.3 |
| 20260506102056 | 23 | 190 | 0.0 | 0.0 | 0.00 | 0.00 | 0.00 | 62 | 1010.3 |
| 20260506101637 | 23 | 0 | 0.0 | 0.0 | 0.00 | 0.00 | 0.00 | 63 | 1009.8 |
| 20260506101553 | 23 | 190 | 0.0 | 0.0 | 0.00 | 0.00 | 0.00 | 63 | 1010.2 |
| 20260506101052 | 23 | 190 | 0.0 | 0.0 | 0.00 | 0.00 | 0.00 | 63 | 1010.3 |
| 20260506100552 | 23 | 190 | 0.0 | 0.0 | 0.00 | 0.00 | 0.00 | 63 | 1010.3 |
| 20260506100106 | 23 | 190 | 0.0 | 0.0 | 0.00 | 0.00 | 0.00 | 62 | 1010.3 |
| 20260506100059 | 23 | 0 | 0.0 | 0.0 | 0.00 | 0.00 | 0.00 | 62 | 1009.8 |
| 20260506095551 | 23 | 190 | 0.0 | 0.0 | 0.00 | 0.00 | 0.00 | 62 | 1010.2 |
| 20260506095050 | 23 | 190 | 0.0 | 3.2 | 0.00 | 0.00 | 0.00 | 62 | 1010.1 |
| 20260506094603 | 23 | 0 | 1.6 | 4.8 | 0.00 | 0.00 | 0.00 | 61 | 1009.7 |
| 20260506094555 | 23 | 190 | 0.0 | 4.8 | 0.00 | 0.00 | 0.00 | 61 | 1010.2 |
| 20260506094046 | 23 | 190 | 0.0 | 3.2 | 0.00 | 0.00 | 0.00 | 61 | 1010.1 |
| 20260506093547 | 23 | 190 | 0.0 | 3.2 | 0.00 | 0.00 | 0.00 | 60 | 1010.1 |
| 20260506093101 | 23 | 0 | 0.0 | 0.0 | 0.00 | 0.00 | 0.00 | 59 | 1009.6 |
| 20260506093046 | 23 | 190 | 0.0 | 0.0 | 0.00 | 0.00 | 0.00 | 59 | 1010.2 |
| 20260506092544 | 23 | 190 | 0.0 | 0.0 | 0.00 | 0.00 | 0.00 | 59 | 1010.1 |
| 20260506092044 | 24 | 190 | 0.0 | 3.2 | 0.00 | 0.00 | 0.00 | 59 | 1010.1 |
| 20260506091557 | 24 | 0 | 0.0 | 4.8 | 0.00 | 0.00 | 0.00 | 59 | 1009.5 |
| 20260506091543 | 24 | 190 | 0.0 | 4.8 | 0.00 | 0.00 | 0.00 | 59 | 1010.0 |
| 20260506091043 | 24 | 190 | 0.0 | 4.8 | 0.00 | 0.00 | 0.00 | 59 | 1010.0 |
| 20260506090541 | 24 | 190 | 0.0 | 4.8 | 0.00 | 0.00 | 0.00 | 58 | 1010.0 |
| 20260506090111 | 24 | 190 | 3.2 | 6.4 | 0.00 | 0.00 | 0.00 | 57 | 1009.6 |
| 20260506090042 | 24 | 190 | 1.6 | 6.4 | 0.00 | 0.00 | 0.00 | 58 | 1009.9 |
| 20260506085539 | 24 | 190 | 3.2 | 6.4 | 0.00 | 0.00 | 0.00 | 57 | 1010.0 |
| 20260506085041 | 25 | 190 | 0.0 | 0.0 | 0.00 | 0.00 | 0.00 | 55 | 1009.9 |
| 20260506084623 | 25 | 0 | 0.0 | 6.4 | 0.00 | 0.00 | 0.00 | 55 | 1009.5 |
| 20260506084539 | 25 | 190 | 0.0 | 3.2 | 0.00 | 0.00 | 0.00 | 55 | 1009.9 |
| 20260506084035 | 25 | 190 | 0.0 | 6.4 | 0.00 | 0.00 | 0.00 | 55 | 1009.8 |
| 20260506083534 | 25 | 190 | 3.2 | 6.4 | 0.00 | 0.00 | 0.00 | 54 | 1009.9 |
| 20260506083059 | 26 | 190 | 0.0 | 3.2 | 0.00 | 0.00 | 0.00 | 52 | 1009.5 |
| 20260506083033 | 26 | 190 | 0.0 | 3.2 | 0.00 | 0.00 | 0.00 | 53 | 1009.8 |
| 20260506082531 | 26 | 190 | 0.0 | 3.2 | 0.00 | 0.00 | 0.00 | 57 | 1009.8 |
| 20260506082031 | 26 | 190 | 0.0 | 4.8 | 0.00 | 0.00 | 0.00 | 56 | 1009.9 |
| 20260506081611 | 26 | 190 | 0.0 | 3.2 | 0.00 | 0.00 | 0.00 | 56 | 1009.5 |
| 20260506081531 | 26 | 190 | 0.0 | 3.2 | 0.00 | 0.00 | 0.00 | 56 | 1009.8 |
| 20260506081030 | 26 | 190 | 0.0 | 0.0 | 0.00 | 0.00 | 0.00 | 56 | 1009.8 |
| 20260506080530 | 26 | 190 | 0.0 | 0.0 | 0.00 | 0.00 | 0.00 | 56 | 1009.8 |
| 20260506073529 | 27 | 190 | 0.0 | 6.4 | 0.00 | 0.00 | 0.00 | 55 | 1009.9 |
| 20260506073058 | 27 | 0 | 1.6 | 6.4 | 0.00 | 0.00 | 0.00 | 54 | 1009.6 |
| 20260506073025 | 27 | 190 | 1.6 | 6.4 | 0.00 | 0.00 | 0.00 | 54 | 1009.9 |
| 20260506072524 | 27 | 190 | 0.0 | 0.0 | 0.00 | 0.00 | 0.00 | 54 | 1010.0 |
| 20260506072023 | 27 | 190 | 0.0 | 0.0 | 0.00 | 0.00 | 0.00 | 53 | 1010.0 |
| 20260506071559 | 27 | 0 | 0.0 | 1.6 | 0.00 | 0.00 | 0.00 | 52 | 1009.8 |
| 20260506071523 | 27 | 190 | 0.0 | 0.0 | 0.00 | 0.00 | 0.00 | 52 | 1010.0 |
| 20260506071022 | 27 | 190 | 0.0 | 1.6 | 0.00 | 0.00 | 0.00 | 50 | 1010.0 |
| 20260506070522 | 27 | 190 | 0.0 | 3.2 | 0.00 | 0.00 | 0.00 | 50 | 1010.1 |
| 20260506062020 | 28 | 190 | 0.0 | 4.8 | 0.00 | 0.00 | 0.00 | 43 | 1010.2 |
| 20260506061559 | 28 | 0 | 0.0 | 8.0 | 0.00 | 0.00 | 0.00 | 45 | 1009.8 |
| 20260506061519 | 28 | 190 | 0.0 | 8.0 | 0.00 | 0.00 | 0.00 | 47 | 1010.2 |
| 20260506061018 | 28 | 190 | 1.6 | 8.0 | 0.00 | 0.00 | 0.00 | 47 | 1010.2 |
| 20260506060518 | 28 | 190 | 0.0 | 3.2 | 0.00 | 0.00 | 0.00 | 44 | 1010.2 |
| 20260506051015 | 28 | 190 | 0.0 | 0.0 | 0.00 | 0.00 | 0.00 | 38 | 1010.0 |
| 20260506050515 | 28 | 190 | 0.0 | 0.0 | 0.00 | 0.00 | 0.00 | 37 | 1009.9 |
| 20260506050116 | 28 | 0 | 0.0 | 0.0 | 0.00 | 0.00 | 0.00 | 37 | 1009.4 |
| 20260506045014 | 29 | 190 | 0.0 | 0.0 | 0.00 | 0.00 | 0.00 | 37 | 1009.7 |
| 20260506044601 | 29 | 0 | 0.0 | 0.0 | 0.00 | 0.00 | 0.00 | 35 | 1009.2 |
| 20260506044515 | 29 | 190 | 0.0 | 0.0 | 0.00 | 0.00 | 0.00 | 36 | 1009.6 |
| 20260506044114 | 29 | 190 | 0.0 | 0.0 | 0.00 | 0.00 | 0.00 | 35 | 1009.6 |
| 20260506043516 | 29 | 190 | 0.0 | 0.0 | 0.00 | 0.00 | 0.00 | 35 | 1009.6 |
| 20260506043100 | 29 | 0 | 0.0 | 0.0 | 0.00 | 0.00 | 0.00 | 34 | 1009.1 |
| 20260506043014 | 29 | 190 | 0.0 | 0.0 | 0.00 | 0.00 | 0.00 | 35 | 1009.5 |
| 20260506042514 | 30 | 190 | 0.0 | 0.0 | 0.00 | 0.00 | 0.00 | 34 | 1009.5 |
| 20260506042021 | 30 | 190 | 0.0 | 0.0 | 0.00 | 0.00 | 0.00 | 33 | 1009.5 |
| 20260506041605 | 30 | 0 | 0.0 | 0.0 | 0.00 | 0.00 | 0.00 | 32 | 1008.9 |
| 20260506041513 | 30 | 190 | 0.0 | 0.0 | 0.00 | 0.00 | 0.00 | 34 | 1009.3 |
| 20260506041020 | 30 | 190 | 0.0 | 0.0 | 0.00 | 0.00 | 0.00 | 33 | 1009.2 |
| 20260506040513 | 30 | 190 | 0.0 | 0.0 | 0.00 | 0.00 | 0.00 | 32 | 1009.1 |
| 20260506040100 | 30 | 0 | 0.0 | 0.0 | 0.00 | 0.00 | 0.00 | 31 | 1008.6 |
| 20260506040013 | 30 | 190 | 0.0 | 0.0 | 0.00 | 0.00 | 0.00 | 31 | 1009.0 |
| 20260506035513 | 30 | 190 | 0.0 | 0.0 | 0.00 | 0.00 | 0.00 | 32 | 1008.8 |
| 20260506035013 | 30 | 190 | 0.0 | 0.0 | 0.00 | 0.00 | 0.00 | 32 | 1008.8 |
| 20260506034602 | 30 | 0 | 0.0 | 0.0 | 0.00 | 0.00 | 0.00 | 31 | 1008.4 |
| 20260506034511 | 30 | 190 | 0.0 | 0.0 | 0.00 | 0.00 | 0.00 | 32 | 1008.7 |
| 20260506034011 | 30 | 190 | 0.0 | 0.0 | 0.00 | 0.00 | 0.00 | 31 | 1008.7 |
| 20260506033514 | 31 | 190 | 0.0 | 0.0 | 0.00 | 0.00 | 0.00 | 30 | 1008.6 |
| 20260506033058 | 31 | 0 | 0.0 | 0.0 | 0.00 | 0.00 | 0.00 | 30 | 1008.2 |
| 20260506033020 | 31 | 190 | 0.0 | 0.0 | 0.00 | 0.00 | 0.00 | 31 | 1008.5 |
| 20260506032511 | 31 | 190 | 0.0 | 0.0 | 0.00 | 0.00 | 0.00 | 29 | 1008.4 |
| 20260506032011 | 31 | 190 | 0.0 | 0.0 | 0.00 | 0.00 | 0.00 | 30 | 1008.3 |
| 20260506031558 | 31 | 0 | 0.0 | 0.0 | 0.00 | 0.00 | 0.00 | 29 | 1008.0 |
| 20260506031522 | 31 | 190 | 0.0 | 0.0 | 0.00 | 0.00 | 0.00 | 29 | 1008.1 |
| 20260506031012 | 31 | 190 | 0.0 | 0.0 | 0.00 | 0.00 | 0.00 | 29 | 1008.0 |
| 20260506030511 | 31 | 190 | 0.0 | 0.0 | 0.00 | 0.00 | 0.00 | 29 | 1007.9 |
| 20260506030059 | 31 | 0 | 0.0 | 1.6 | 0.00 | 0.00 | 0.00 | 29 | 1007.6 |
| 20260506030010 | 31 | 190 | 0.0 | 1.6 | 0.00 | 0.00 | 0.00 | 29 | 1007.8 |
| 20260506025510 | 31 | 190 | 0.0 | 1.6 | 0.00 | 0.00 | 0.00 | 29 | 1007.7 |
| 20260506025010 | 32 | 190 | 0.0 | 0.0 | 0.00 | 0.00 | 0.00 | 28 | 1007.7 |
| 20260506024610 | 32 | 0 | 0.0 | 0.0 | 0.00 | 0.00 | 0.00 | 28 | 1007.3 |
| 20260506024510 | 32 | 190 | 0.0 | 0.0 | 0.00 | 0.00 | 0.00 | 28 | 1007.5 |
| 20260506024009 | 32 | 190 | 0.0 | 0.0 | 0.00 | 0.00 | 0.00 | 28 | 1007.4 |
| 20260506023510 | 32 | 190 | 0.0 | 0.0 | 0.00 | 0.00 | 0.00 | 28 | 1007.3 |
| 20260506023112 | 32 | 0 | 0.0 | 0.0 | 0.00 | 0.00 | 0.00 | 27 | 1007.1 |
| 20260506023010 | 32 | 190 | 0.0 | 0.0 | 0.00 | 0.00 | 0.00 | 28 | 1007.3 |
| 20260506022513 | 32 | 190 | 0.0 | 0.0 | 0.00 | 0.00 | 0.00 | 28 | 1007.2 |
| 20260506022013 | 32 | 190 | 0.0 | 0.0 | 0.00 | 0.00 | 0.00 | 27 | 1007.1 |
| 20260506021605 | 33 | 0 | 0.0 | 3.2 | 0.00 | 0.00 | 0.00 | 26 | 1006.8 |
| 20260506021509 | 32 | 190 | 0.0 | 3.2 | 0.00 | 0.00 | 0.00 | 27 | 1007.0 |
| 20260506021011 | 33 | 190 | 0.0 | 3.2 | 0.00 | 0.00 | 0.00 | 27 | 1006.9 |
| 20260506020508 | 33 | 190 | 0.0 | 3.2 | 0.00 | 0.00 | 0.00 | 26 | 1006.9 |
| 20260506020100 | 33 | 0 | 0.0 | 1.6 | 0.00 | 0.00 | 0.00 | 26 | 1006.6 |
| 20260506020014 | 33 | 190 | 0.0 | 1.6 | 0.00 | 0.00 | 0.00 | 26 | 1006.7 |
| 20260506015510 | 33 | 190 | 0.0 | 1.6 | 0.00 | 0.00 | 0.00 | 26 | 1006.7 |
| 20260506015008 | 33 | 190 | 0.0 | 3.2 | 0.00 | 0.00 | 0.00 | 26 | 1006.6 |
| 20260506014559 | 34 | 0 | 0.0 | 8.0 | 0.00 | 0.00 | 0.00 | 25 | 1006.4 |
| 20260506014507 | 34 | 190 | 0.0 | 8.0 | 0.00 | 0.00 | 0.00 | 25 | 1006.5 |
| 20260506014007 | 34 | 190 | 1.6 | 8.0 | 0.00 | 0.00 | 0.00 | 25 | 1006.4 |
| 20260506013510 | 34 | 190 | 1.6 | 6.4 | 0.00 | 0.00 | 0.00 | 25 | 1006.3 |
| 20260506013105 | 35 | 0 | 1.6 | 6.4 | 0.00 | 0.00 | 0.00 | 24 | 1006.0 |
| 20260506013008 | 35 | 190 | 1.6 | 6.4 | 0.00 | 0.00 | 0.00 | 25 | 1006.2 |
| 20260506012507 | 35 | 190 | 1.6 | 6.4 | 0.00 | 0.00 | 0.00 | 25 | 1006.2 |
| 20260506012107 | 35 | 190 | 0.0 | 8.0 | 0.00 | 0.00 | 0.00 | 24 | 1006.2 |
| 20260506011606 | 35 | 0 | 4.8 | 14.5 | 0.00 | 0.00 | 0.00 | 24 | 1006.0 |
| 20260506011511 | 35 | 190 | 3.2 | 14.5 | 0.00 | 0.00 | 0.00 | 24 | 1006.1 |
| 20260506011006 | 35 | 190 | 1.6 | 14.5 | 0.00 | 0.00 | 0.00 | 24 | 1006.0 |
| 20260506010506 | 35 | 190 | 3.2 | 12.9 | 0.00 | 0.00 | 0.00 | 24 | 1006.0 |
| 20260506010100 | 36 | 190 | 3.2 | 14.5 | 0.00 | 0.00 | 0.00 | 23 | 1005.9 |
| 20260506010017 | 35 | 190 | 3.2 | 14.5 | 0.00 | 0.00 | 0.00 | 24 | 1005.9 |
| 20260506005506 | 36 | 190 | 6.4 | 14.5 | 0.00 | 0.00 | 0.00 | 23 | 1005.8 |
| 20260506005006 | 36 | 190 | 4.8 | 16.1 | 0.00 | 0.00 | 0.00 | 23 | 1005.8 |
| 20260506004604 | 36 | 190 | 6.4 | 16.1 | 0.00 | 0.00 | 0.00 | 23 | 1005.6 |
| 20260506004506 | 36 | 190 | 6.4 | 16.1 | 0.00 | 0.00 | 0.00 | 23 | 1005.7 |
| 20260506004005 | 36 | 190 | 1.6 | 16.1 | 0.00 | 0.00 | 0.00 | 23 | 1005.6 |
| 20260506003505 | 36 | 190 | 3.2 | 11.3 | 0.00 | 0.00 | 0.00 | 23 | 1005.5 |
| 20260506003100 | 36 | 190 | 3.2 | 17.7 | 0.00 | 0.00 | 0.00 | 22 | 1005.3 |
| 20260506003005 | 36 | 190 | 1.6 | 17.7 | 0.00 | 0.00 | 0.00 | 23 | 1005.4 |
| 20260506002504 | 36 | 190 | 6.4 | 19.3 | 0.00 | 0.00 | 0.00 | 23 | 1005.3 |
| 20260506002004 | 37 | 190 | 8.0 | 19.3 | 0.00 | 0.00 | 0.00 | 22 | 1005.2 |
| 20260506001601 | 37 | 190 | 4.8 | 11.3 | 0.00 | 0.00 | 0.00 | 22 | 1005.1 |
| 20260506001504 | 37 | 190 | 3.2 | 11.3 | 0.00 | 0.00 | 0.00 | 23 | 1005.2 |
| 20260506001004 | 37 | 190 | 6.4 | 12.9 | 0.00 | 0.00 | 0.00 | 22 | 1005.1 |
| 20260506000505 | 37 | 190 | 3.2 | 12.9 | 0.00 | 0.00 | 0.00 | 23 | 1005.0 |
| 20260506000105 | 37 | 190 | 1.6 | 16.1 | 0.00 | 0.00 | 0.00 | 22 | 1004.9 |
| 20260506000005 | 37 | 190 | 1.6 | 16.1 | 0.00 | 0.00 | 0.00 | 22 | 1004.9 |
| 20260505235503 | 37 | 190 | 6.4 | 16.1 | 0.00 | 0.00 | 0.00 | 23 | 1004.9 |
| 20260505235003 | 37 | 190 | 8.0 | 16.1 | 0.00 | 0.00 | 0.00 | 22 | 1004.9 |
| 20260505234557 | 38 | 190 | 3.2 | 12.9 | 0.00 | 0.00 | 0.00 | 22 | 1004.9 |
| 20260505234503 | 37 | 190 | 3.2 | 12.9 | 0.00 | 0.00 | 0.00 | 23 | 1004.9 |
| 20260505234002 | 37 | 190 | 4.8 | 12.9 | 0.00 | 0.00 | 0.00 | 22 | 1004.9 |
| 20260505233501 | 38 | 190 | 0.0 | 11.3 | 0.00 | 0.00 | 0.00 | 22 | 1004.9 |
| 20260505233059 | 38 | 190 | 1.6 | 11.3 | 0.00 | 0.00 | 0.00 | 22 | 1004.9 |
| 20260505233005 | 38 | 190 | 0.0 | 11.3 | 0.00 | 0.00 | 0.00 | 22 | 1004.9 |
| 20260505232502 | 38 | 190 | 0.0 | 6.4 | 0.00 | 0.00 | 0.00 | 22 | 1005.0 |
| 20260505232103 | 38 | 190 | 0.0 | 11.3 | 0.00 | 0.00 | 0.00 | 22 | 1005.0 |
| 20260505231600 | 37 | 190 | 4.8 | 16.1 | 0.00 | 0.00 | 0.00 | 22 | 1005.0 |
| 20260505231558 | 37 | 190 | 3.2 | 16.1 | 0.00 | 0.00 | 0.00 | 22 | 1005.0 |
| 20260505231100 | 37 | 190 | 4.8 | 16.1 | 0.00 | 0.00 | 0.00 | 23 | 1005.1 |
| 20260505230559 | 37 | 190 | 6.4 | 12.9 | 0.00 | 0.00 | 0.00 | 23 | 1005.0 |
| 20260505230122 | 37 | 190 | 0.0 | 11.3 | 0.00 | 0.00 | 0.00 | 22 | 1005.2 |
| 20260505230100 | 37 | 190 | 3.2 | 12.9 | 0.00 | 0.00 | 0.00 | 23 | 1005.1 |
| 20260505225558 | 37 | 190 | 3.2 | 11.3 | 0.00 | 0.00 | 0.00 | 23 | 1005.2 |
| 20260505225057 | 38 | 190 | 3.2 | 12.9 | 0.00 | 0.00 | 0.00 | 22 | 1005.2 |
| 20260505224559 | 37 | 190 | 1.6 | 12.9 | 0.00 | 0.00 | 0.00 | 22 | 1005.3 |
| 20260505224056 | 37 | 190 | 3.2 | 24.1 | 0.00 | 0.00 | 0.00 | 22 | 1005.4 |
| 20260505223557 | 37 | 190 | 12.9 | 24.1 | 0.00 | 0.00 | 0.00 | 22 | 1005.4 |
| 20260505223057 | 37 | 190 | 3.2 | 11.3 | 0.00 | 0.00 | 0.00 | 23 | 1005.4 |
| 20260505222555 | 37 | 190 | 3.2 | 16.1 | 0.00 | 0.00 | 0.00 | 23 | 1005.5 |
| 20260505222055 | 37 | 190 | 9.7 | 16.1 | 0.00 | 0.00 | 0.00 | 23 | 1005.6 |
| 20260505221602 | 37 | 190 | 1.6 | 14.5 | 0.00 | 0.00 | 0.00 | 22 | 1005.6 |
| 20260505221555 | 37 | 190 | 6.4 | 12.9 | 0.00 | 0.00 | 0.00 | 23 | 1005.7 |
| 20260505221053 | 37 | 190 | 3.2 | 14.5 | 0.00 | 0.00 | 0.00 | 23 | 1005.8 |
| 20260505220552 | 37 | 190 | 1.6 | 22.5 | 0.00 | 0.00 | 0.00 | 23 | 1005.9 |
| 20260505220052 | 37 | 190 | 1.6 | 24.1 | 0.00 | 0.00 | 0.00 | 23 | 1006.0 |
| 20260505215653 | 37 | 190 | 8.0 | 24.1 | 0.00 | 0.00 | 0.00 | 23 | 1006.0 |
| 20260505215051 | 38 | 190 | 3.2 | 11.3 | 0.00 | 0.00 | 0.00 | 23 | 1006.0 |
| 20260505214605 | 38 | 190 | 3.2 | 11.3 | 0.00 | 0.00 | 0.00 | 22 | 1006.1 |
| 20260505214049 | 37 | 190 | 4.8 | 11.3 | 0.00 | 0.00 | 0.00 | 24 | 1006.2 |
| 20260505213547 | 37 | 190 | 1.6 | 6.4 | 0.00 | 0.00 | 0.00 | 24 | 1006.3 |
| 20260505213058 | 37 | 0 | 0.0 | 14.5 | 0.00 | 0.00 | 0.00 | 24 | 1006.4 |
| 20260505213047 | 37 | 190 | 0.0 | 14.5 | 0.00 | 0.00 | 0.00 | 24 | 1006.3 |
| 20260505212547 | 37 | 190 | 4.8 | 14.5 | 0.00 | 0.00 | 0.00 | 24 | 1006.7 |
| 20260505212044 | 37 | 190 | 1.6 | 14.5 | 0.00 | 0.00 | 0.00 | 24 | 1006.6 |
| 20260505211603 | 37 | 190 | 8.0 | 19.3 | 0.00 | 0.00 | 0.00 | 24 | 1006.6 |
| 20260505211546 | 37 | 190 | 6.4 | 19.3 | 0.00 | 0.00 | 0.00 | 24 | 1006.7 |
| 20260505211043 | 37 | 190 | 8.0 | 19.3 | 0.00 | 0.00 | 0.00 | 24 | 1006.8 |
| 20260505210543 | 37 | 190 | 11.3 | 19.3 | 0.00 | 0.00 | 0.00 | 24 | 1006.9 |
| 20260505210105 | 37 | 190 | 3.2 | 12.9 | 0.00 | 0.00 | 0.00 | 24 | 1006.8 |
| 20260505210043 | 37 | 190 | 1.6 | 12.9 | 0.00 | 0.00 | 0.00 | 24 | 1006.9 |
| 20260505205540 | 37 | 190 | 1.6 | 22.5 | 0.00 | 0.00 | 0.00 | 24 | 1007.1 |
| 20260505205039 | 37 | 190 | 8.0 | 22.5 | 0.00 | 0.00 | 0.00 | 24 | 1007.1 |
| 20260505204605 | 37 | 190 | 3.2 | 19.3 | 0.00 | 0.00 | 0.00 | 24 | 1007.1 |
| 20260505204538 | 37 | 190 | 4.8 | 12.9 | 0.00 | 0.00 | 0.00 | 24 | 1007.3 |
| 20260505204037 | 37 | 190 | 4.8 | 19.3 | 0.00 | 0.00 | 0.00 | 24 | 1007.3 |
| 20260505203536 | 37 | 190 | 8.0 | 19.3 | 0.00 | 0.00 | 0.00 | 24 | 1007.3 |
| 20260505203107 | 36 | 190 | 3.2 | 14.5 | 0.00 | 0.00 | 0.00 | 24 | 1007.3 |
| 20260505203038 | 36 | 190 | 3.2 | 11.3 | 0.00 | 0.00 | 0.00 | 24 | 1007.6 |
| 20260505202533 | 36 | 190 | 6.4 | 17.7 | 0.00 | 0.00 | 0.00 | 24 | 1007.8 |
| 20260505202033 | 36 | 190 | 6.4 | 17.7 | 0.00 | 0.00 | 0.00 | 24 | 1007.9 |
| 20260505201559 | 36 | 190 | 3.2 | 11.3 | 0.00 | 0.00 | 0.00 | 24 | 1007.7 |
| 20260505201542 | 36 | 190 | 3.2 | 14.5 | 0.00 | 0.00 | 0.00 | 24 | 1008.0 |
| 20260505201031 | 36 | 190 | 1.6 | 16.1 | 0.00 | 0.00 | 0.00 | 24 | 1008.0 |
| 20260505200530 | 36 | 190 | 4.8 | 16.1 | 0.00 | 0.00 | 0.00 | 24 | 1008.2 |
| 20260505200110 | 36 | 190 | 6.4 | 16.1 | 0.00 | 0.00 | 0.00 | 23 | 1008.1 |
| 20260505200032 | 36 | 190 | 8.0 | 16.1 | 0.00 | 0.00 | 0.00 | 24 | 1008.3 |
| 20260505195527 | 36 | 190 | 0.0 | 8.0 | 0.00 | 0.00 | 0.00 | 24 | 1008.3 |
| 20260505195027 | 36 | 190 | 1.6 | 12.9 | 0.00 | 0.00 | 0.00 | 24 | 1008.5 |
| 20260505194558 | 36 | 190 | 4.8 | 22.5 | 0.00 | 0.00 | 0.00 | 24 | 1008.6 |
| 20260505194526 | 36 | 190 | 4.8 | 22.5 | 0.00 | 0.00 | 0.00 | 24 | 1008.7 |
| 20260505194025 | 36 | 190 | 4.8 | 14.5 | 0.00 | 0.00 | 0.00 | 25 | 1008.8 |
| 20260505193523 | 35 | 190 | 6.4 | 14.5 | 0.00 | 0.00 | 0.00 | 25 | 1008.9 |
| 20260505193104 | 35 | 190 | 6.4 | 17.7 | 0.00 | 0.00 | 0.00 | 25 | 1008.9 |
| 20260505193022 | 35 | 190 | 6.4 | 16.1 | 0.00 | 0.00 | 0.00 | 25 | 1009.1 |
| 20260505192525 | 35 | 190 | 3.2 | 19.3 | 0.00 | 0.00 | 0.00 | 26 | 1009.2 |
| 20260505192021 | 35 | 190 | 6.4 | 19.3 | 0.00 | 0.00 | 0.00 | 26 | 1009.2 |
| 20260505191608 | 35 | 190 | 4.8 | 19.3 | 0.00 | 0.00 | 0.00 | 26 | 1009.2 |
| 20260505191520 | 35 | 190 | 4.8 | 19.3 | 0.00 | 0.00 | 0.00 | 26 | 1009.4 |
| 20260505191019 | 36 | 190 | 9.7 | 19.3 | 0.00 | 0.00 | 0.00 | 26 | 1009.5 |
| 20260505190522 | 35 | 190 | 1.6 | 8.0 | 0.00 | 0.00 | 0.00 | 27 | 1009.6 |
| 20260505190058 | 35 | 0 | 1.6 | 16.1 | 0.00 | 0.00 | 0.00 | 27 | 1009.4 |
| 20260505190026 | 35 | 190 | 0.0 | 8.0 | 0.00 | 0.00 | 0.00 | 27 | 1009.6 |
| 20260505185516 | 35 | 190 | 1.6 | 16.1 | 0.00 | 0.00 | 0.00 | 27 | 1009.8 |
| 20260505185015 | 35 | 190 | 6.4 | 19.3 | 0.00 | 0.00 | 0.00 | 27 | 1009.9 |
| 20260505184559 | 35 | 190 | 4.8 | 16.1 | 0.00 | 0.00 | 0.00 | 27 | 1009.8 |
| 20260505184514 | 35 | 190 | 6.4 | 16.1 | 0.00 | 0.00 | 0.00 | 27 | 1010.1 |
| 20260505184013 | 35 | 190 | 6.4 | 16.1 | 0.00 | 0.00 | 0.00 | 27 | 1010.2 |
| 20260505183511 | 35 | 190 | 6.4 | 17.7 | 0.00 | 0.00 | 0.00 | 28 | 1010.3 |
| 20260505183057 | 35 | 190 | 6.4 | 17.7 | 0.00 | 0.00 | 0.00 | 28 | 1010.1 |
| 20260505183010 | 35 | 190 | 4.8 | 17.7 | 0.00 | 0.00 | 0.00 | 28 | 1010.5 |
| 20260505182511 | 34 | 190 | 1.6 | 16.1 | 0.00 | 0.00 | 0.00 | 29 | 1010.5 |
| 20260505182009 | 33 | 190 | 1.6 | 17.7 | 0.00 | 0.00 | 0.00 | 29 | 1010.7 |
| 20260505181559 | 33 | 190 | 6.4 | 17.7 | 0.00 | 0.00 | 0.00 | 29 | 1010.5 |
| 20260505181509 | 33 | 190 | 3.2 | 17.7 | 0.00 | 0.00 | 0.00 | 29 | 1010.8 |
| 20260505181009 | 34 | 190 | 8.0 | 16.1 | 0.00 | 0.00 | 0.00 | 29 | 1010.9 |
| 20260505180508 | 34 | 190 | 1.6 | 8.0 | 0.00 | 0.00 | 0.00 | 29 | 1011.0 |
| 20260505180057 | 33 | 190 | 0.0 | 11.3 | 0.00 | 0.00 | 0.00 | 30 | 1010.7 |
| 20260505180006 | 33 | 190 | 0.0 | 11.3 | 0.00 | 0.00 | 0.00 | 31 | 1011.1 |
| 20260505175505 | 33 | 190 | 3.2 | 11.3 | 0.00 | 0.00 | 0.00 | 31 | 1011.1 |
| 20260505175011 | 33 | 190 | 3.2 | 11.3 | 0.00 | 0.00 | 0.00 | 30 | 1011.3 |
| 20260505174606 | 33 | 0 | 3.2 | 12.9 | 0.00 | 0.00 | 0.00 | 30 | 1010.9 |
| 20260505174506 | 33 | 190 | 3.2 | 12.9 | 0.00 | 0.00 | 0.00 | 30 | 1011.3 |
| 20260505174007 | 33 | 190 | 4.8 | 12.9 | 0.00 | 0.00 | 0.00 | 30 | 1011.5 |
| 20260505173503 | 33 | 190 | 3.2 | 14.5 | 0.00 | 0.00 | 0.00 | 30 | 1011.5 |
| 20260505173058 | 33 | 190 | 6.4 | 14.5 | 0.00 | 0.00 | 0.00 | 31 | 1011.1 |
| 20260505173001 | 32 | 190 | 4.8 | 14.5 | 0.00 | 0.00 | 0.00 | 31 | 1011.5 |
| 20260505172501 | 32 | 190 | 0.0 | 14.5 | 0.00 | 0.00 | 0.00 | 32 | 1011.7 |
| 20260505172001 | 32 | 190 | 3.2 | 14.5 | 0.00 | 0.00 | 0.00 | 32 | 1011.8 |
| 20260505171603 | 32 | 190 | 1.6 | 11.3 | 0.00 | 0.00 | 0.00 | 33 | 1011.9 |
| 20260505171557 | 32 | 190 | 0.0 | 14.5 | 0.00 | 0.00 | 0.00 | 32 | 1011.3 |
| 20260505171059 | 32 | 190 | 4.8 | 14.5 | 0.00 | 0.00 | 0.00 | 33 | 1011.9 |
| 20260505170558 | 32 | 190 | 1.6 | 14.5 | 0.00 | 0.00 | 0.00 | 34 | 1012.0 |
| 20260505170058 | 32 | 190 | 3.2 | 12.9 | 0.00 | 0.00 | 0.00 | 34 | 1012.1 |
| 20260505165558 | 32 | 190 | 0.0 | 11.3 | 0.00 | 0.00 | 0.00 | 35 | 1012.2 |
| 20260505165056 | 31 | 190 | 3.2 | 14.5 | 0.00 | 0.00 | 0.00 | 35 | 1012.3 |
| 20260505164601 | 31 | 190 | 4.8 | 11.3 | 0.00 | 0.00 | 0.00 | 35 | 1012.0 |
| 20260505164555 | 31 | 190 | 4.8 | 11.3 | 0.00 | 0.00 | 0.00 | 35 | 1012.4 |
| 20260505164053 | 31 | 190 | 0.0 | 11.3 | 0.00 | 0.00 | 0.00 | 36 | 1012.5 |
| 20260505163552 | 31 | 190 | 3.2 | 11.3 | 0.00 | 0.00 | 0.00 | 37 | 1012.5 |
| 20260505163103 | 31 | 0 | 3.2 | 8.0 | 0.00 | 0.00 | 0.00 | 37 | 1012.2 |
| 20260505163051 | 31 | 190 | 0.0 | 8.0 | 0.00 | 0.00 | 0.00 | 37 | 1012.6 |
| 20260505162551 | 31 | 190 | 1.6 | 8.0 | 0.00 | 0.00 | 0.00 | 37 | 1012.7 |
| 20260505162050 | 31 | 190 | 0.0 | 11.3 | 0.00 | 0.00 | 0.00 | 38 | 1012.8 |
| 20260505161609 | 30 | 190 | 1.6 | 8.0 | 0.00 | 0.00 | 0.00 | 39 | 1012.5 |
| 20260505161605 | 30 | 190 | 1.6 | 11.3 | 0.00 | 0.00 | 0.00 | 39 | 1012.8 |
| 20260505161048 | 30 | 190 | 1.6 | 8.0 | 0.00 | 0.00 | 0.00 | 40 | 1012.9 |
| 20260505160548 | 30 | 190 | 1.6 | 8.0 | 0.00 | 0.00 | 0.00 | 40 | 1012.9 |
| 20260505153058 | 29 | 0 | 4.8 | 8.0 | 0.00 | 0.00 | 0.00 | 42 | 1012.6 |
| 20260505153041 | 29 | 190 | 3.2 | 8.0 | 0.00 | 0.00 | 0.00 | 43 | 1013.0 |
| 20260505152540 | 28 | 190 | 0.0 | 8.0 | 0.00 | 0.00 | 0.00 | 44 | 1013.1 |
| 20260505152038 | 28 | 190 | 3.2 | 6.4 | 0.00 | 0.00 | 0.00 | 44 | 1013.2 |
| 20260505151558 | 28 | 0 | 0.0 | 8.0 | 0.00 | 0.00 | 0.00 | 45 | 1012.9 |
| 20260505151538 | 28 | 190 | 0.0 | 8.0 | 0.00 | 0.00 | 0.00 | 45 | 1013.3 |
| 20260505151037 | 28 | 190 | 1.6 | 8.0 | 0.00 | 0.00 | 0.00 | 46 | 1013.3 |
| 20260505150537 | 28 | 190 | 1.6 | 6.4 | 0.00 | 0.00 | 0.00 | 46 | 1013.4 |
| 20260505150107 | 28 | 0 | 0.0 | 4.8 | 0.00 | 0.00 | 0.00 | 46 | 1012.9 |
| 20260505140530 | 25 | 190 | 0.0 | 0.0 | 0.00 | 0.00 | 0.00 | 54 | 1013.3 |
| 20260505130111 | 22 | 0 | 0.0 | 0.0 | 0.00 | 0.00 | 0.00 | 59 | 1012.2 |
| 20260505125023 | 22 | 190 | 0.0 | 0.0 | 0.00 | 0.00 | 0.00 | 59 | 1012.7 |
| 20260505124601 | 22 | 0 | 0.0 | 0.0 | 0.00 | 0.00 | 0.00 | 59 | 1012.0 |
| 20260505124522 | 22 | 190 | 0.0 | 0.0 | 0.00 | 0.00 | 0.00 | 60 | 1012.6 |
| 20260505124021 | 22 | 190 | 0.0 | 0.0 | 0.00 | 0.00 | 0.00 | 60 | 1012.5 |
| 20260505123519 | 22 | 190 | 0.0 | 0.0 | 0.00 | 0.00 | 0.00 | 60 | 1012.5 |
| 20260505123102 | 22 | 0 | 0.0 | 0.0 | 0.00 | 0.00 | 0.00 | 60 | 1011.9 |
| 20260505123019 | 22 | 190 | 0.0 | 0.0 | 0.00 | 0.00 | 0.00 | 60 | 1012.4 |
| 20260505122518 | 22 | 190 | 0.0 | 0.0 | 0.00 | 0.00 | 0.00 | 60 | 1012.3 |
| 20260505122017 | 22 | 190 | 0.0 | 0.0 | 0.00 | 0.00 | 0.00 | 60 | 1012.2 |
| 20260505121559 | 22 | 0 | 0.0 | 0.0 | 0.00 | 0.00 | 0.00 | 59 | 1011.6 |
| 20260505121518 | 22 | 190 | 0.0 | 0.0 | 0.00 | 0.00 | 0.00 | 59 | 1012.2 |
| 20260505121015 | 22 | 190 | 0.0 | 0.0 | 0.00 | 0.00 | 0.00 | 59 | 1012.1 |
| 20260505120515 | 22 | 190 | 0.0 | 0.0 | 0.00 | 0.00 | 0.00 | 59 | 1012.0 |
| 20260505120104 | 22 | 0 | 0.0 | 3.2 | 0.00 | 0.00 | 0.00 | 58 | 1011.4 |
| 20260505120042 | 22 | 190 | 0.0 | 0.0 | 0.00 | 0.00 | 0.00 | 59 | 1012.0 |
| 20260505115516 | 22 | 190 | 0.0 | 3.2 | 0.00 | 0.00 | 0.00 | 59 | 1011.9 |
| 20260505115012 | 22 | 190 | 0.0 | 3.2 | 0.00 | 0.00 | 0.00 | 58 | 1011.8 |
| 20260505114558 | 22 | 0 | 0.0 | 3.2 | 0.00 | 0.00 | 0.00 | 58 | 1011.2 |
| 20260505114512 | 22 | 190 | 0.0 | 3.2 | 0.00 | 0.00 | 0.00 | 58 | 1011.8 |
| 20260505114010 | 22 | 190 | 0.0 | 0.0 | 0.00 | 0.00 | 0.00 | 58 | 1011.7 |
| 20260505113508 | 22 | 190 | 0.0 | 3.2 | 0.00 | 0.00 | 0.00 | 58 | 1011.6 |
| 20260505113115 | 22 | 0 | 0.0 | 3.2 | 0.00 | 0.00 | 0.00 | 57 | 1011.1 |
| 20260505113007 | 22 | 190 | 0.0 | 3.2 | 0.00 | 0.00 | 0.00 | 58 | 1011.5 |
| 20260505112506 | 22 | 190 | 0.0 | 3.2 | 0.00 | 0.00 | 0.00 | 57 | 1011.4 |
| 20260505112005 | 22 | 190 | 0.0 | 3.2 | 0.00 | 0.00 | 0.00 | 57 | 1011.3 |
| 20260505111555 | 22 | 190 | 0.0 | 3.2 | 0.00 | 0.00 | 0.00 | 56 | 1010.9 |
| 20260505111506 | 22 | 190 | 0.0 | 3.2 | 0.00 | 0.00 | 0.00 | 57 | 1011.2 |
| 20260505111008 | 22 | 190 | 0.0 | 0.0 | 0.00 | 0.00 | 0.00 | 57 | 1011.3 |
| 20260505110502 | 22 | 190 | 0.0 | 0.0 | 0.00 | 0.00 | 0.00 | 57 | 1011.1 |
| 20260505110118 | 23 | 0 | 0.0 | 0.0 | 0.00 | 0.00 | 0.00 | 56 | 1010.8 |